User: anonymous   Login
Location: Falniów
(50.3639°N, 19.9642°E)
Time: 05:27:53
(UTC+00:00)
Language:

Cosmos 2251 Rocket - Orbit

View from above orbital plane
View from above orbital plane
View from above satellite
View from above satellite

Ground track
Ground track

The orbit is defined by the following mean orbital elements,

1 22676U          26067.57449438 +.00000000 +00000-0 +83958-4 0 00008
2 22676  74.0403 110.9908 0016946  76.9750 283.3293 14.35262597    05
Epoch (UTC): 08 March 2026 13:47:16
Eccentricity: 0.0016946
inclination: 74.0403°
perigee height: 762 km
apogee height: 786 km
right ascension of ascending node: 110.9908°
argument of perigee: 76.9750°
revolutions per day: 14.35262597
mean anomaly at epoch: 283.3293°

The dashed part of the orbit path shows where the satellite is in the earth's shadow,  

DLR